Flag for Canada Weather past 2 weeks in Yellowknife, Northwest Territories, Canada

Now
54 °F

Light rain. Mostly cloudy.


Feels Like: 54 °F
Forecast: 49 / 54 °F
Wind: 2 mph from North

Location: Yellowknife

Current Time: Sep 1, 2014 at 1:56:06 AM

Latest Report: Sep 1, 2014 at 1:00 AM


Visibility: 8 mi

Pressure: 29.64 "Hg

Humidity: 94%

Dew point: 52 °F

Location of YellowknifeLocation

Historic Weather in Yellowknife — Graph

°F

Yellowknife temperature yesterday

Maximum temperature yesterday: 57 °F (at 4:00 PM)
Minimum temperature yesterday: 50 °F (at 2:00 AM)
Average temperature yesterday: 54 °F

Past Weeks' High & Low Weather Summary

 TemperatureHumidityPressure
High66 °F (Aug 25, 5:00 PM)100% (Aug 22, 4:46 AM)30.36 "Hg (Aug 22, 4:46 AM)
Low39 °F (Aug 20, 3:00 AM)31% (Aug 20, 7:00 PM)29.47 "Hg (Aug 30, 10:00 PM)
Average53 °F75%29.88 "Hg
* Reported Midnight between Aug 16 and Aug 17 — Midnight between Aug 31 and Sep 1, Yellowknife, Weather by CustomWeather, © 2014

Note: Actual official high and low records may vary slightly from our data, if they occured in-between our weather recording intervals... More about our weather records

Advertising

Yellowknife weather history for previous 24 hours

 ConditionsComfort  
Time TempWeatherWind HumidityBarometerVisibility
12:00 AM
Sep 1
54 °FMostly cloudy.2 mph94%29.63 "Hg10 mi
11:00 PM
Aug 31
52 °FPassing clouds.3 mph100%29.62 "Hg15 mi
10:00 PM54 °FPassing clouds.5 mph94%29.62 "Hg15 mi
9:00 PM54 °FPartly sunny.7 mph94%29.62 "Hg15 mi
8:00 PM54 °FPartly sunny.5 mph88%29.62 "Hg15 mi
7:00 PM55 °FPartly sunny.8 mph82%29.60 "Hg15 mi
6:00 PM55 °FPartly sunny.7 mph88%29.59 "Hg15 mi
5:00 PM55 °FPartly sunny.6 mph88%29.59 "Hg15 mi
4:00 PM57 °FBroken clouds.7 mph82%29.58 "Hg15 mi
3:00 PM55 °FMore clouds than sun.6 mph88%29.57 "Hg15 mi
2:00 PM55 °FLight rain. Cloudy.5 mph88%29.56 "Hg15 mi
1:00 PM55 °FMostly cloudy.9 mph88%29.55 "Hg12 mi
12:00 PM55 °FFog.3 mph94%29.54 "Hg4 mi
11:00 AM52 °FFog.8 mph100%29.54 "Hg3 mi
10:00 AM54 °FMostly cloudy.9 mph88%29.52 "Hg15 mi
9:00 AM54 °FMostly cloudy.10 mph94%29.52 "Hg12 mi
8:00 AM54 °FCloudy.12 mph94%29.51 "Hg10 mi
7:00 AM54 °FDrizzle. Fog.8 mph100%29.50 "Hg3 mi
6:00 AM54 °FFog.6 mph94%29.49 "Hg5 mi
5:00 AM52 °FFog.7 mph100%29.49 "Hg5 mi
4:00 AM52 °FFog.7 mph100%29.49 "Hg5 mi
3:00 AM52 °FPassing clouds.3 mph100%29.48 "Hg10 mi
2:00 AM50 °FPartly cloudy.5 mph100%29.49 "Hg15 mi
1:00 AM52 °FPassing clouds.6 mph94%29.48 "Hg15 mi
Weather by CustomWeather, © 2014

See weather overviewHow to use our weather pages